Location: Cumbre Roja
(10.2766°N, 67.0675°W)
Time: 23:24:23
(UTC+00:00)

Meteor 2-1 Rocket - Pass Details

Date: 18 November 2025
Orbit: 822 x 912 km, 81.3° (Epoch: 14 December)

Event Time Altitude Azimuth Distance (km) Brightness Sun altitude
Rises 22:39:28 0° 185° (S) 3,453 7.7 -9.4°
Reaches altitude 10° 22:41:52 10° 185° (S) 2,528 7.0 -10.0°
Maximum altitude 22:47:39 90° 96° (E) 895 4.3 -11.3°
Drops below altitude 10° 22:53:33 10° 5° (N) 2,577 6.5 -12.7°
Sets 22:56:01 0° 6° (N) 3,524 7.2 -13.3°
